sat.trackr.live / text

‹ back to catalog

STARLINK-36660

NORAD 67848 · 2026-033AD

PAYLOAD ACTIVE UNKNOWN

§ Identity

Operator
Country
US
Launch date
2026-02-16
Launch site
AFETR
Launch vehicle
Mass (kg)
RCS (m²)

Purposes: comms

External: N2YO · Heavens-Above · Gunter

§ Orbital elements

Epoch: 2026-05-24T13:17:53.903040Z

Period
94.27 min
Inclination
43.0001°
Eccentricity
0.0001985
Mean motion
15.27595954 rev/d
Perigee alt
481.6 km
Apogee alt
484.4 km
Semi-major
6,861.1 km
B*
5.8734e-4
RAAN
198.8569°
Arg perigee
269.0653°
Mean anomaly
90.9972°
Rev number
1,627

§ Raw data

STARLINK-366601 67848U 26033AD  26144.55409610  .00015943  00000+0  58734-3 0  99952 67848  43.0001 198.8569 0001985 269.0653  90.9972 15.27595954 16277

JSON: /api/v1/satellites/67848 · /tle

For live sub-satellite position, see the globe view (requires WebGL).

§ Visibility from observer

Set your observer location to see the next 7 days of passes ≥ 10°. The values pass through the URL so the page stays shareable.

No JS? Fill the form by hand. The geolocation button needs JavaScript.